Location: Unspecified
(51.0000°N, 12.0000°E)
Time: 22:05:04
(UTC+01:00)

ISS - Pass Details

Date: 06 January 2018
Orbit: 401 x 407 km, 51.6° (Epoch: 17 January)

Event Time Altitude Azimuth Distance (km) Brightness Sun altitude
Exits shadow 06:47:52 23° 281° (W) 915 -2.7 -12.8°
Maximum altitude 06:49:47 83° 7° (N) 415 -3.9 -12.5°
Drops below altitude 10° 06:53:05 10° 96° (E) 1,468 0.4 -12.0°
Sets 06:55:10 0° 97° (E) 2,329 1.8 -11.7°
